Regional Weather Roundup
Issued by NWS

Home | Current Version | Previous Version | Graphics & Text | Print | Product List | Glossary Off
Versions: 1 2 3 4 5 6 7 8 9 10 11 12 13 14 15 16 17 18 19 20 21 22 23 24 25 26 27 28 29 30 31 32 33 34 35 36 37 38 39 40 41 42 43 44 45 46 47 48 49 50

333
ASUS43 KMPX 230210
RWRMN
WEATHER ROUNDUP FOR MINNESOTA
NATIONAL WEATHER SERVICE TWIN CITIES/CHANHASSEN MN
900 PM CDT MON MAY 22 2017


NOTE: "FAIR" INDICATES FEW OR NO CLOUDS BELOW 12,000 FEET WITH NO
SIGNIFICANT WEATHER AND/OR OBSTRUCTIONS TO VISIBILITY. N/A MEANS
CURRENT SKY AND/OR WEATHER CONDITIONS ARE NOT AVAILABLE.

MNZ060>063-068>070-230300-
   Twin Cities Metro

CITY           SKY/WX    TMP DP  RH WIND       PRES   REMARKS
TWIN CITIES    CLOUDY    59  41  51 NW7       29.82R
ST PAUL        CLOUDY    59  43  55 N8        29.82S
CRYSTAL        PTCLDY    57  40  52 NW7       29.82R
BLAINE         PTCLDY    57  45  62 N9        29.82S
LAKEVILLE      CLOUDY    57  45  62 NW3       29.83R
EDEN PRAIRIE   CLOUDY    60  43  53 NW6       29.82R
SOUTH ST PAUL  MOCLDY    59  41  51 NW3       29.82R
LAKE ELMO      FAIR      55  45  67 N5        29.83R
$$
MNZ001>005-007-008-013>017-022>024-027-028-230300-
   Northwest Minnesota

CITY           SKY/WX    TMP DP  RH WIND       PRES   REMARKS
BEMIDJI        CLOUDY    45  43  93 NW3       29.85S
HALLOCK        CLOUDY    50  46  87 N12       29.92R
ROSEAU         CLOUDY    48  43  81 N8        29.89R
WARROAD        LGT RAIN  48  45  87 N8        29.89R
THIEF RVR FALL LGT RAIN  47  44  90 N7        29.89R
CROOKSTON      CLOUDY    50  46  87 N10       29.89R
FOSSTON        CLOUDY    46  45  93 NW6       29.87S
DETROIT LAKES  CLOUDY    46  43  87 N7        29.88S
MOORHEAD       CLOUDY    48  45  87 NW8       29.89S
PARK RAPIDS    CLOUDY    47  41  80 N7        29.85R
MAHNOMEN       CLOUDY    47  44  90 NW5       29.87R
$$
MNZ006-009>011-018-025>026-230300-
   North Central Minnesota

CITY           SKY/WX    TMP DP  RH WIND       PRES   REMARKS
BAUDETTE       LGT RAIN  47  46  97 N9        29.85R
FLAG ISLAND    DRIZZLE   48  45  87 N16       29.88R
INTL FALLS     CLOUDY    48  44  86 N7        29.82S
WASKISH        DRIZZLE   46  45  93 NW3       29.85R
BIG FORK       DRIZZLE   46  45  93 CALM      29.83S
LONGVILLE      CLOUDY    46  45  93 CALM      29.84R
GRAND RAPIDS   CLOUDY    47  43  86 N3        29.85R
CRANE LAKE     CLOUDY    46  43  87 CALM      29.83S
ORR            CLOUDY    46  43  87 CALM      29.80R
COOK           CLOUDY    46  43  87 CALM      29.83R
WALKER         RAIN      44  43  95 NW5       29.85S
$$
MNZ012-019>021-037-230300-
   Northeast Minnesota

CITY           SKY/WX    TMP DP  RH WIND       PRES   REMARKS
DULUTH         MOCLDY    50  42  74 N6        29.82R
ELY            CLOUDY    46  45  93 CALM      29.81R
HIBBING        CLOUDY    45  44  97 CALM      29.82R
EVELETH        CLOUDY    48  39  71 CALM      29.83S
DULUTH HARBOR  CLOUDY    54  46  76 SW5       29.83R
TWO HARBORS    MOCLDY    54  46  76 CALM      29.80R
SILVER BAY     DRIZZLE   50  46  87 CALM      29.80R
GRAND MARAIS     N/A     42  40  92 CALM      29.80R
G MARAIS ARPRT CLOUDY    46  39  76 CALM      29.81R
$$
MNZ029>031-032-039>041-046>048-054>057-064-230300-
   West Central Minnesota

CITY           SKY/WX    TMP DP  RH WIND       PRES   REMARKS
FERGUS FALLS   CLOUDY    48  43  81 N13       29.87S
WHEATON        CLOUDY    52  41  66 NW9G17    29.91S
MORRIS         CLOUDY    52  45  76 NW12      29.87S
ALEXANDRIA     PTCLDY    49  41  74 NW7       29.86R
ELBOW LAKE     CLOUDY    49  44  83 W12       29.87S
WADENA         CLOUDY    46  41  81 NW9       29.85S
GLENWOOD       PTCLDY    52  43  71 NW10      29.86S
APPLETON       MOCLDY    54  43  66 N7        29.88S
BENSON         CLOUDY    54  45  71 N7        29.89R
ORTONVILLE     DRIZZLE   52  43  71 N10G22    29.89R
MADISON        CLOUDY    55  45  67 N8        29.89R
WILLMAR        FAIR      54  45  71 NW8       29.87R
$$
MNZ033>034-036-042>043-049>051-058-059-230300-
   Central Minnesota

CITY           SKY/WX    TMP DP  RH WIND       PRES   REMARKS
ST CLOUD       CLEAR     50  42  74 W5        29.84R
SAUK CENTRE    CLOUDY    51  42  71 NW8       29.85S
PAYNESVILLE    PTCLDY    51  42  71 NW3       29.85S
AITKIN         RAIN      46  45  93 CALM      29.83R
PINE RIVER     CLOUDY    48  43  81 N3        29.87S
BRAINERD       CLOUDY    49  41  74 NW8       29.84R
STAPLES        CLOUDY    48  41  76 N7        29.85R
LONG PRAIRIE   MOCLDY    50  41  71 W8        29.85R
LITTLE FALLS   MOCLDY    50  39  66 NW5       29.84S
LITCHFIELD     CLOUDY    55  45  67 N6        29.85S
BUFFALO        CLOUDY    56  42  58 NW3       29.84S
MAPLE LAKE     PTCLDY    53  45  72 NW7       29.84S
HUTCHINSON     CLOUDY    57  44  59 N8        29.86R
$$
MNZ037-044-045-052-053-230300-
   East Central Minnesota

CITY           SKY/WX    TMP DP  RH WIND       PRES   REMARKS
PRINCETON      PTCLDY    52  43  71 CALM      29.84R
MORA           CLOUDY    50  45  81 CALM      29.84S
CAMBRIDGE      MOCLDY    54  43  66 CALM      29.82R
RUSH CITY      CLOUDY    51  45  79 CALM      29.83S
MOOSE LAKE     CLOUDY    48  43  81 CALM      29.81S
HINCKLEY       CLOUDY    50  45  81 CALM      29.83S
CLOQUET        CLOUDY    48  43  81 CALM      29.82S
MCGREGOR       CLOUDY    48  43  81 NW6       29.84S
$$
MNZ071>073-080-081-089-090-097-098-230300-
   Southwest Minnesota

CITY           SKY/WX    TMP DP  RH WIND       PRES   REMARKS
MONTEVIDEO     MOCLDY    54  45  71 N9        29.88R
CANBY          CLOUDY    53  45  73 N7        29.90S
MARSHALL       LGT RAIN  51  49  92 W7        29.89R
REDWOOD FALLS  CLOUDY    57  44  62 N8        29.86R
OLIVIA         CLOUDY    55  43  62 N8        29.86R
PIPESTONE      RAIN      52  45  76 N7        29.90R
WINDOM         MOCLDY    52  48  87 NW7       29.87R
WORTHINGTON    CLOUDY    51  47  86 NW13      29.89R
JACKSON        LGT RAIN  50  46  87 VRB8G16   29.87S
TRACY          RAIN      52  49  92 W3        29.88R
SLAYTON        LGT RAIN  49  46  92 NW8       29.89S
$$
MNZ065>067-074>077-082>085-091>093-230300-
   South Central Minnesota

CITY           SKY/WX    TMP DP  RH WIND       PRES   REMARKS
MANKATO        RAIN      53  51  93 W7        29.86R
NEW ULM        RAIN      52  50  93 SW5       29.87R
ST JAMES       RAIN      54  50  87 NW9       29.87S
FAIRMONT       CLOUDY    53  50  89 N14       29.85R
GLENCOE        CLOUDY    58  49  72 NW3       29.84R
FARIBAULT      RAIN      57  48  72 CALM      29.83S
OWATONNA       LGT RAIN  55  48  76 NW6       29.84R
WASECA         RAIN      54  50  87 NW9       29.86R
ALBERT LEA     LGT RAIN  55  54  94 N6        29.83F
$$
MNZ078>079-086>088-094>096-230300-
   Southeast Minnesota

CITY           SKY/WX    TMP DP  RH WIND       PRES   REMARKS
ROCHESTER      LGT RAIN  57  50  77 NW9       29.82R
RED WING       PTCLDY    59  45  58 N3        29.81R
STANTON        CLOUDY    59  48  67 N3        29.81S
DODGE CENTER   LGT RAIN  59  48  67 W3        29.83R
WINONA         MOCLDY    61  46  59 CALM      29.80S
AUSTIN         CLOUDY    54  52  94 W10G20    29.85R
PRESTON        TSTM      59  48  66 S5        29.81R
$$
ABBREVIATIONS USED IN REMARKS
   TC - TEMPERATURES IN CELSIUS
  WCI - WIND CHILL INDEX
   HX - HEAT INDEX
  VSB - VISIBILITY
$$




USA.gov is the U.S. government's official web portal to all federal, state and local government web resources and services.